IBE04WY LEMD-LEBL

Flight info

Callsign IBE04WY
Flight time 0h 57m
Altitude FL300
Route PINAR N870 PONEN T600 CASPE
Aircraft A320/M-S/N

Departure

Time 2026-05-04 05:51
Airport Adolfo Suárez Madrid–Barajas Airport (LEMD)

Arrival

Time 2026-05-04 06:48
Airport Josep Tarradellas Barcelona-El Prat Airport (LEBL)
Time Latitude Longitude Altitude Speed Heading
2026-05-04 05:25 40.49558 -3.56875 1978 ft 0 kts 89°
2026-05-04 05:31 40.49543 -3.56950 1984 ft 0 kts
2026-05-04 05:37 40.49548 -3.56950 1984 ft 3 kts
2026-05-04 05:37 40.49580 -3.56950 1982 ft 7 kts
2026-05-04 05:38 40.49725 -3.56951 1981 ft 14 kts 359°
2026-05-04 05:38 40.49814 -3.56972 1984 ft 7 kts 302°
2026-05-04 05:38 40.49839 -3.57000 1983 ft 5 kts 333°
2026-05-04 05:38 40.49881 -3.57008 1984 ft 7 kts 357°
2026-05-04 05:39 40.49944 -3.57012 1984 ft 10 kts 358°
2026-05-04 05:39 40.50027 -3.56840 1975 ft 19 kts 91°
2026-05-04 05:39 40.50028 -3.56636 1965 ft 20 kts 87°
2026-05-04 05:40 40.49983 -3.56545 1962 ft 0 kts 188°
2026-05-04 05:40 40.49980 -3.56545 1962 ft 1 kts 181°
2026-05-04 05:40 40.49962 -3.56547 1962 ft 4 kts 186°
2026-05-04 05:41 40.49924 -3.56551 1966 ft 7 kts 181°
2026-05-04 05:41 40.49866 -3.56551 1962 ft 10 kts 180°
2026-05-04 05:41 40.49791 -3.56551 1963 ft 12 kts 180°
2026-05-04 05:41 40.49713 -3.56551 1964 ft 4 kts 179°
2026-05-04 05:42 40.49674 -3.56550 1964 ft 7 kts 179°
2026-05-04 05:42 40.49615 -3.56550 1964 ft 10 kts 180°
2026-05-04 05:42 40.49563 -3.56522 1966 ft 10 kts 129°
2026-05-04 05:42 40.49553 -3.56427 1960 ft 11 kts 91°
2026-05-04 05:43 40.49558 -3.56339 1958 ft 11 kts 89°
2026-05-04 05:43 40.49522 -3.56260 1956 ft 5 kts 157°
2026-05-04 05:43 40.49478 -3.56249 1956 ft 8 kts 175°
2026-05-04 05:45 40.49302 -3.56006 1952 ft 1 kts 74°
2026-05-04 05:45 40.49309 -3.55979 1952 ft 6 kts 68°
2026-05-04 05:47 40.49468 -3.55919 1952 ft 0 kts 54°
2026-05-04 05:49 40.49474 -3.55910 1952 ft 3 kts 54°
2026-05-04 05:49 40.49490 -3.55880 1953 ft 5 kts 53°
2026-05-04 05:49 40.49506 -3.55826 1953 ft 8 kts 89°
2026-05-04 05:49 40.49482 -3.55772 1953 ft 0 kts 138°
2026-05-04 05:51 40.44910 -3.51222 2685 ft 235 kts 145°
2026-05-04 05:51 40.43596 -3.50026 3711 ft 225 kts 143°
2026-05-04 05:52 40.42608 -3.48449 4626 ft 231 kts 121°
2026-05-04 05:52 40.41942 -3.46477 5387 ft 243 kts 115°
2026-05-04 05:52 40.41272 -3.44416 6341 ft 247 kts 117°
2026-05-04 05:52 40.40568 -3.42359 7345 ft 250 kts 118°
2026-05-04 05:53 40.39825 -3.40279 8290 ft 254 kts 119°
2026-05-04 05:54 40.46586 -3.30869 13839 ft 308 kts 355°
2026-05-04 05:55 40.48740 -3.30810 14645 ft 313 kts 359°
2026-05-04 05:55 40.50928 -3.30585 15411 ft 319 kts
2026-05-04 05:55 40.53151 -3.30251 16178 ft 325 kts
2026-05-04 05:55 40.55407 -3.29864 16927 ft 330 kts
2026-05-04 05:56 40.57701 -3.29456 17677 ft 336 kts
2026-05-04 05:56 40.60031 -3.29042 18397 ft 341 kts
2026-05-04 05:56 40.62388 -3.28628 19038 ft 345 kts
2026-05-04 05:56 40.64821 -3.28209 19334 ft 364 kts
2026-05-04 05:57 40.67391 -3.27773 19531 ft 383 kts
2026-05-04 05:57 40.70101 -3.27313 19720 ft 402 kts
2026-05-04 05:57 40.72929 -3.26830 20014 ft 416 kts
2026-05-04 05:57 40.75810 -3.26331 20623 ft 420 kts
2026-05-04 05:58 40.78716 -3.25827 21248 ft 425 kts
2026-05-04 05:58 40.81616 -3.24950 21842 ft 435 kts 18°
2026-05-04 05:58 40.84324 -3.23087 22406 ft 445 kts 34°
2026-05-04 05:58 40.86622 -3.20344 22971 ft 451 kts 50°
2026-05-04 05:59 40.88355 -3.16887 23538 ft 454 kts 66°
2026-05-04 05:59 40.89393 -3.12968 24038 ft 452 kts 82°
2026-05-04 05:59 40.89760 -3.08862 24513 ft 452 kts 90°
2026-05-04 05:59 40.89992 -3.04709 24981 ft 457 kts 88°
2026-05-04 06:00 40.90410 -3.00516 25448 ft 463 kts 84°
2026-05-04 06:00 40.91026 -2.96326 25910 ft 469 kts 81°
2026-05-04 06:00 40.91774 -2.92117 26361 ft 473 kts 79°
2026-05-04 06:00 40.92583 -2.87902 26807 ft 477 kts 78°
2026-05-04 06:01 40.93420 -2.83647 27245 ft 480 kts 78°
2026-05-04 06:01 40.94262 -2.79371 27650 ft 484 kts 78°
2026-05-04 06:03 41.00217 -2.48508 29965 ft 505 kts 78°
2026-05-04 06:03 41.01072 -2.44025 29970 ft 503 kts 78°
2026-05-04 06:05 41.08710 -2.03561 29963 ft 504 kts 78°
2026-05-04 06:06 41.10383 -1.94561 29971 ft 504 kts 79°
2026-05-04 06:06 41.12051 -1.85551 29972 ft 505 kts 79°
2026-05-04 06:07 41.13714 -1.76528 29971 ft 505 kts 79°
2026-05-04 06:07 41.15371 -1.67497 29970 ft 505 kts 79°
2026-05-04 06:08 41.17018 -1.58469 29971 ft 504 kts 79°
2026-05-04 06:08 41.18656 -1.49451 29956 ft 504 kts 79°
2026-05-04 06:09 41.20289 -1.40420 29971 ft 504 kts 79°
2026-05-04 06:11 41.26752 -1.04275 29962 ft 504 kts 80°
2026-05-04 06:13 41.33104 -0.68038 29967 ft 504 kts 80°
2026-05-04 06:14 41.33839 -0.40883 29977 ft 489 kts 104°
2026-05-04 06:14 41.33335 -0.36418 29975 ft 490 kts 104°
2026-05-04 06:15 41.32326 -0.27468 29975 ft 490 kts 104°
2026-05-04 06:15 41.31309 -0.18518 29970 ft 491 kts 104°
2026-05-04 06:16 41.30280 -0.09540 29975 ft 492 kts 104°
2026-05-04 06:16 41.29245 -0.00572 29978 ft 492 kts 104°
2026-05-04 06:17 41.28950 0.08551 29980 ft 505 kts 85°
2026-05-04 06:17 41.29752 0.13076 29852 ft 505 kts 73°
2026-05-04 06:17 41.31175 0.17316 29406 ft 503 kts 60°
2026-05-04 06:18 41.33187 0.21092 28836 ft 499 kts 47°
2026-05-04 06:18 41.35692 0.24207 28231 ft 491 kts 34°
2026-05-04 06:18 41.38586 0.26527 27607 ft 482 kts 20°
2026-05-04 06:20 41.60156 0.28262 23889 ft 438 kts 12°
2026-05-04 06:20 41.62989 0.29823 23047 ft 447 kts 28°
2026-05-04 06:21 41.68964 0.43156 20679 ft 421 kts 95°
2026-05-04 06:21 41.68562 0.46955 20104 ft 407 kts 112°
2026-05-04 06:22 41.67404 0.50312 19520 ft 393 kts 130°
2026-05-04 06:22 41.65604 0.52917 19094 ft 372 kts 149°
2026-05-04 06:25 41.49776 0.88715 12607 ft 346 kts 110°
2026-05-04 06:25 41.49069 0.91770 12119 ft 344 kts 110°
2026-05-04 06:26 41.48368 0.94796 11656 ft 341 kts 110°
2026-05-04 06:26 41.47672 0.97801 11167 ft 340 kts 110°
2026-05-04 06:26 41.46979 1.00786 10830 ft 333 kts 110°
2026-05-04 06:26 41.46310 1.03667 10700 ft 320 kts 110°
2026-05-04 06:27 41.43805 1.14389 9994 ft 301 kts 110°
2026-05-04 06:28 41.43182 1.17045 9992 ft 300 kts 110°
2026-05-04 06:28 41.42561 1.19688 9993 ft 300 kts 110°
2026-05-04 06:28 41.41940 1.22335 9996 ft 300 kts 110°
2026-05-04 06:28 41.41317 1.24983 9995 ft 300 kts 110°
2026-05-04 06:29 41.40696 1.27626 9997 ft 300 kts 110°
2026-05-04 06:29 41.40073 1.30269 9994 ft 300 kts 110°
2026-05-04 06:29 41.39449 1.32917 9999 ft 300 kts 110°
2026-05-04 06:29 41.38825 1.35558 9995 ft 300 kts 110°
2026-05-04 06:30 41.38198 1.38207 9990 ft 301 kts 110°
2026-05-04 06:30 41.37571 1.40856 9995 ft 300 kts 110°
2026-05-04 06:30 41.36945 1.43497 9994 ft 299 kts 110°
2026-05-04 06:30 41.36321 1.46124 9994 ft 298 kts 110°
2026-05-04 06:31 41.35699 1.48746 9988 ft 298 kts 110°
2026-05-04 06:31 41.35076 1.51365 9992 ft 298 kts 110°
2026-05-04 06:31 41.34182 1.53806 9942 ft 292 kts 132°
2026-05-04 06:31 41.32656 1.55502 9610 ft 285 kts 158°
2026-05-04 06:32 41.30840 1.56387 9229 ft 281 kts 166°
2026-05-04 06:33 41.18228 1.61661 6608 ft 271 kts 165°
2026-05-04 06:34 41.16448 1.62428 6234 ft 269 kts 165°
2026-05-04 06:34 41.14677 1.63192 5859 ft 267 kts 165°
2026-05-04 06:34 41.12917 1.63951 5483 ft 266 kts 165°
2026-05-04 06:34 41.11165 1.64705 5110 ft 265 kts 165°
2026-05-04 06:35 41.09435 1.65450 4888 ft 257 kts 165°
2026-05-04 06:36 40.99161 1.70362 3963 ft 220 kts 132°
2026-05-04 06:37 40.98552 1.72163 3915 ft 215 kts 96°
2026-05-04 06:37 40.98826 1.74004 3862 ft 200 kts 60°
2026-05-04 06:37 40.99536 1.75510 3757 ft 186 kts 57°
2026-05-04 06:37 41.00215 1.76889 3645 ft 172 kts 57°
2026-05-04 06:38 41.00837 1.78178 3470 ft 163 kts 58°
2026-05-04 06:38 41.01431 1.79441 3175 ft 161 kts 58°
2026-05-04 06:40 41.05189 1.87703 1986 ft 146 kts 59°
2026-05-04 06:40 41.05710 1.88854 1986 ft 146 kts 59°
2026-05-04 06:40 41.06233 1.90007 1985 ft 147 kts 59°
2026-05-04 06:40 41.06757 1.91162 1985 ft 146 kts 59°
2026-05-04 06:41 41.07280 1.92315 1984 ft 146 kts 59°
2026-05-04 06:41 41.07803 1.93467 1987 ft 146 kts 59°
2026-05-04 06:41 41.08327 1.94624 1988 ft 147 kts 59°
2026-05-04 06:41 41.08851 1.95780 1988 ft 147 kts 59°
2026-05-04 06:42 41.09376 1.96938 1989 ft 147 kts 59°
2026-05-04 06:42 41.09902 1.98099 1985 ft 147 kts 59°
2026-05-04 06:42 41.10429 1.99255 1989 ft 147 kts 56°
2026-05-04 06:44 41.16863 2.03025 1988 ft 146 kts 18°
2026-05-04 06:44 41.17824 2.03466 1995 ft 147 kts 18°
2026-05-04 06:44 41.18786 2.03906 1989 ft 147 kts 18°
2026-05-04 06:45 41.19750 2.04348 1920 ft 148 kts 18°
2026-05-04 06:45 41.20708 2.04787 1722 ft 144 kts 18°
2026-05-04 06:45 41.21654 2.05220 1529 ft 143 kts 18°
2026-05-04 06:45 41.22593 2.05650 1334 ft 143 kts 18°
2026-05-04 06:46 41.23531 2.06080 1134 ft 142 kts 18°
2026-05-04 06:46 41.24456 2.06504 951 ft 140 kts 18°
2026-05-04 06:46 41.25372 2.06924 756 ft 139 kts 18°
2026-05-04 06:46 41.26281 2.07334 568 ft 138 kts 15°
2026-05-04 06:48 41.30616 2.09229 21 ft 0 kts 330°
2026-05-04 06:50 41.30664 2.09177 20 ft 12 kts 313°
2026-05-04 06:51 41.30664 2.09097 21 ft 10 kts 225°
2026-05-04 06:51 41.30593 2.09051 19 ft 13 kts 198°
2026-05-04 06:51 41.30524 2.09018 21 ft 0 kts 198°
2026-05-04 06:52 41.30514 2.09013 19 ft 5 kts 198°
2026-05-04 06:52 41.30461 2.08994 19 ft 10 kts 195°
2026-05-04 06:52 41.30417 2.08959 19 ft 1 kts 244°
2026-05-04 06:52 41.30405 2.08938 20 ft 5 kts 234°
2026-05-04 06:53 41.30382 2.08880 21 ft 9 kts 244°
2026-05-04 06:53 41.30351 2.08788 19 ft 13 kts 245°
2026-05-04 06:53 41.30309 2.08667 20 ft 16 kts 245°
2026-05-04 06:53 41.30260 2.08521 19 ft 13 kts 244°
2026-05-04 06:54 41.30232 2.08443 19 ft 11 kts 244°
2026-05-04 06:54 41.30197 2.08334 20 ft 15 kts 247°
2026-05-04 06:54 41.30172 2.08259 18 ft 1 kts 242°
2026-05-04 06:55 41.30168 2.08249 18 ft 4 kts 245°
2026-05-04 06:55 41.30163 2.08195 18 ft 7 kts 292°
2026-05-04 06:55 41.30178 2.08185 19 ft 2 kts 339°
2026-05-04 06:55 41.30203 2.08167 20 ft 6 kts 328°
2026-05-04 06:56 41.30239 2.08127 18 ft 7 kts 313°
2026-05-04 06:57 41.30281 2.08056 18 ft 0 kts 307°